AirNav   Everest Fuels
 
 484 users online  

PA57 Grove City Medical Center Heliport
Grove City, Pennsylvania, USA

GOING TO GROVE CITY?


FAA INFORMATION EFFECTIVE 15 JULY 2021

Location

FAA Identifier: PA57
Lat/Long: 41-10-17.2500N 080-05-05.7000W
41-10.287500N 080-05.095000W
41.1714583,-80.0849167
(estimated)
Elevation: 1255 ft. / 383 m (estimated)
Variation: 09W (2000)
From city: 1 mile N of GROVE CITY, PA
Time zone: UTC -4 (UTC -5 during Standard Time)
Zip code: 16127

Heliport Operations

Heliport use: Private use. Permission required prior to landing
Activation date: 08/2008
Control tower: no
ARTCC: CLEVELAND CENTER
FSS: ALTOONA FLIGHT SERVICE STATION
NOTAMs facility: FDC (NOTAM-D service not available)
Attendance: UNATNDD
Segmented circle: no

Heliport Communications

YOUNGSTOWN APPROACH: 133.95
YOUNGSTOWN DEPARTURE: 133.95
GEPPE DP: 133.95
WX AWOS-3PT at FKL (16 nm NE): 118.175 ((814) 437-2066)
WX AWOS-3PT at UCP (17 nm SW): 124.175 ((724) 652-4184)
  • APCH/DEP SVC PRVDD BY CLEVELAND ARTCC (ZOB) ON 126.725/291.65 (BRADFORD RCAG), WHEN YOUNGSTOWN APCH CLSD.

Nearby radio navigation aids

VOR radial/distance  VOR name  Freq  Var
FKLr219/(19.0)FRANKLIN VOR109.6006W
EWCr023/21.6ELLWOOD CITY VOR/DME115.8008W
YNGr115/28.3YOUNGSTOWN VORTAC109.0005W

 
NDB name  Hdg/Dist  Freq  Var  ID
CASTLE068/17.427209WUCP ..- -.-. .--.

Heliport Services

Runway Information

Helipad H1

Dimensions: 65 x 65 ft. / 20 x 20 m
Surface: asphalt, in good condition
Runway edge markings: TLOF AND FATO MKD.
Latitude: 41-10.287500N
Longitude: 080-05.095000W
Elevation: 1255.0 ft.
Traffic pattern: leftleft
Markings: , in good condition

Heliport Ownership and Management from official FAA records

Ownership: Privately-owned
Owner: GROVE CITY MEDICAL CENTER
631 NORTH BROAD STREET EXTENSION
GROVE CITY, PA 16127
Phone 724-450-7142
Manager: LEVI HIPPS
631 NORTH BROAD STREET EXTENSION
GROVE CITY, PA 16127
Phone 724-450-7142

Additional Remarks

FOR CD CTC YOUNGSTOWN APCH AT 330-856-4806, WHEN APCH CLSD CTC CLEVELAND ARTCC AT 440-774-0234.
NON-STD LGT.

Instrument Procedures

There are no published instrument procedures at PA57.

Some nearby airports with instrument procedures:

29D - Grove City Airport (4 nm W)
KFKL - Venango Regional Airport (16 nm NE)
KUCP - New Castle Municipal Airport (17 nm SW)
4G1 - Greenville Municipal Airport (22 nm NW)
KPJC - Zelienople Municipal Airport (22 nm S)
 
Loc | Ops | Rwys | IFR | FBO | Links
Com | Nav | Svcs | Stats | Notes
Aerial photo
No photo
 
Sectional chart

 
Airport distance calculator
Flying to Grove City Medical Center Heliport? Find the distance to fly.

From to PA57

Sunrise and sunset
Times for 31-Jul-2021
 Local
(UTC-4)
 Zulu
(UTC)
Morning civil twilight05:4509:45
Sunrise06:1610:16
Sunset20:3800:38
Evening civil twilight21:0901:09

Current date and time
Zulu (UTC)  31-Jul-2021 06:35:27
Local (UTC-4)  31-Jul-2021 02:35:27
 
METAR
KFKL 
15nm NE 
310556Z AUTO 00000KT 10SM CLR 12/11 A3008 RMK AO2 SLP182 6//// T01220111 10178 20117 56003
KUCP 
17nm SW 
310556Z AUTO 00000KT 10SM CLR 12/11 A3008 RMK AO2 SLP197 T01220111 10200 20122 58000
KPJC 
22nm S 
310035Z AUTO 32003KT 7SM +RA CLR 18/11 A3005 RMK AO2
KBTP 
25nm S 
310556Z AUTO 00000KT 10SM CLR 12/11 A3008 RMK AO2 SLP186 T01220111 10200 20117 50003
KYNG 
27nm W 
310551Z 23003KT 10SM BKN220 12/11 A3008 RMK AO2 SLP181 T01220106 10194 20122 58005
KBVI 
28nm SW 
310035Z AUTO 34006KT 10SM CLR 19/12 A3007 RMK AO2 T01870121
KGKJ 
28nm N 
310553Z AUTO 00000KT 10SM CLR 13/12 A3007 RMK AO2 SLP177 T01330117 10178 20133 58003
TAF
KFKL 
15nm NE 
310520Z 3106/0106 33005KT P6SM SCT250 TEMPO 3109/3112 1SM BR BKN002 FM311300 27003KT P6SM SKC
NOTAMs
Click for the latest NOTAMs
NOTAMs are issued by the DoD/FAA and will open in a separate window not controlled by AirNav.

 

 
 

Would you like to see your business listed on this page?

 If your business provides an interesting product or service to pilots, flight crews, aircraft, or users of the Grove City Medical Center Heliport, you should consider listing it here.  To start the listing process, click on the button below
 
Add a business
 

Other Pages about Grove City Medical Center Heliport

Update a link
 
Copyright © AirNav, LLC. All rights reserved. Privacy Policy  Contact